CW9676 Weather Reports


Display with metric or nautical units.
time (UTC)temp
F
wind
direction
speed
MPH
gust
MPH
rain 1hr
in
rain 24hr
in
rain mn
in
humidity
%
barometer
mb
20260504001612 67 57 4.0 10.0 0.00 0.00 0.00 41 1009.4
20260503235507 67 67 5.0 12.0 0.00 0.00 0.00 43 1009.6
20260503234443 67 53 5.0 12.0 0.00 0.00 0.00 43 1009.6
20260503232330 68 53 5.0 15.0 0.00 0.00 0.00 42 1009.8
20260503231346 67 105 9.0 15.0 0.00 0.00 0.00 42 1009.8
20260503230351 68 44 6.0 12.0 0.00 0.00 0.00 41 1010.0
20260503225334 70 73 6.0 12.0 0.00 0.00 0.00 40 1010.2
20260503224326 69 88 7.0 13.0 0.00 0.00 0.00 41 1010.2
20260503222140 67 55 8.0 15.0 0.00 0.00 0.00 44 1010.5
20260503221200 67 68 7.0 15.0 0.00 0.00 0.00 44 1010.5
20260503220159 65 57 8.0 15.0 0.00 0.00 0.00 45 1010.6
20260503215203 66 64 7.0 13.0 0.00 0.00 0.00 44 1010.8
20260503214144 66 84 8.0 14.0 0.00 0.00 0.00 45 1011.1
20260503213112 68 54 8.0 16.0 0.00 0.00 0.00 43 1011.3
20260503212055 68 36 5.0 12.0 0.00 0.00 0.00 44 1011.6
20260503211114 67 56 6.0 17.0 0.00 0.00 0.00 45 1011.7
20260503210139 66 19 9.0 17.0 0.00 0.00 0.00 45 1011.9
20260503205108 67 47 8.0 15.0 0.00 0.00 0.00 44 1012.0
20260503204132 67 32 8.0 17.0 0.00 0.00 0.00 45 1012.3
20260503203108 69 84 7.0 18.0 0.00 0.00 0.00 43 1012.4
20260503202125 68 74 8.0 18.0 0.00 0.00 0.00 43 1012.6
20260503201053 66 68 8.0 15.0 0.00 0.00 0.00 45 1012.8
20260503195017 67 105 7.0 14.0 0.00 0.00 0.00 43 1013.3
20260503194012 67 92 8.0 18.0 0.00 0.00 0.00 44 1013.5
20260503192942 67 79 10.0 18.0 0.00 0.00 0.00 44 1013.6
20260503192004 67 74 6.0 15.0 0.00 0.00 0.00 43 1013.7
20260503191009 67 100 7.0 15.0 0.00 0.00 0.00 46 1014.2
20260503185948 67 71 7.0 17.0 0.00 0.00 0.00 46 1014.4
20260503184954 65 95 9.0 17.0 0.00 0.00 0.00 48 1014.4
20260503183928 64 55 7.0 16.0 0.00 0.00 0.00 48 1014.7
20260503182929 64 75 7.0 16.0 0.00 0.00 0.00 48 1014.7
20260503181904 65 42 9.0 15.0 0.00 0.00 0.00 47 1014.9
20260503180918 65 23 7.0 17.0 0.00 0.00 0.00 47 1015.0
20260503174748 62 65 8.0 14.0 0.00 0.00 0.00 48 1015.2
20260503170317 63 55 8.0 15.0 0.00 0.00 0.00 48 1015.8
20260503151010 56 41 6.0 13.0 0.00 0.00 0.00 62 1016.2
20260503130710 51 359 5.0 8.0 0.00 0.00 0.00 69 1015.8
20260503110527 50 352 5.0 9.0 0.00 0.01 0.00 69 1015.5
20260503090336 51 329 3.0 8.0 0.00 0.01 0.00 69 1016.5
20260503081306 50 345 4.0 9.0 0.00 0.01 0.00 70 1016.9
20260503080255 50 350 5.0 9.0 0.00 0.01 0.00 70 1016.9
20260503072053 50 359 5.0 11.0 0.00 0.01 0.00 71 1017.2
20260503071046 50 16 6.0 11.0 0.00 0.01 0.00 70 1017.3
20260503054931 51 340 5.0 9.0 0.00 0.06 0.06 68 1017.3
20260503053912 51 335 6.0 9.0 0.00 0.06 0.06 68 1017.3
20260503052856 51 335 5.0 9.0 0.00 0.06 0.06 68 1017.3
20260503051835 51 325 5.0 9.0 0.00 0.06 0.06 68 1017.5
20260503045712 51 321 5.0 10.0 0.00 0.09 0.06 68 1017.4
20260503044714 51 331 5.0 10.0 0.00 0.09 0.06 68 1017.3
20260503043703 51 326 5.0 8.0 0.00 0.09 0.06 69 1017.4
20260503042706 51 326 5.0 10.0 0.00 0.09 0.06 68 1017.4
20260503041646 51 4 6.0 11.0 0.00 0.09 0.06 68 1017.1
20260503040626 51 337 6.0 11.0 0.00 0.09 0.06 69 1017.0
20260503033313 52 359 6.0 11.0 0.00 0.09 0.06 68 1016.5
20260503032247 52 4 6.0 11.0 0.00 0.09 0.06 67 1016.6
20260503031310 52 355 6.0 11.0 0.00 0.09 0.06 67 1016.5
20260503030241 52 359 6.0 11.0 0.00 0.09 0.06 67 1016.4
20260503025218 52 4 6.0 10.0 0.00 0.09 0.06 67 1016.5
20260503024206 52 337 5.0 10.0 0.00 0.09 0.06 67 1016.4
20260503023138 53 348 4.0 9.0 0.00 0.09 0.06 67 1016.6
20260503022110 53 321 5.0 10.0 0.00 0.09 0.06 67 1016.5
20260503021109 54 342 6.0 10.0 0.00 0.09 0.06 66 1016.6
20260503020058 54 341 6.0 11.0 0.00 0.09 0.06 65 1016.6
20260503015042 54 334 6.0 12.0 0.00 0.09 0.06 65 1016.5
20260503014022 55 337 7.0 12.0 0.00 0.09 0.06 63 1016.2
20260503013008 55 338 8.0 12.0 0.00 0.09 0.06 61 1016.1
20260503010839 55 359 6.0 13.0 0.00 0.09 0.06 62 1016.1
20260503005842 56 359 5.0 14.0 0.00 0.09 0.06 60 1016.3
20260503004851 56 341 8.0 14.0 0.00 0.09 0.06 60 1016.1
20260503003836 56 316 8.0 12.0 0.00 0.09 0.06 59 1015.9
20260503002807 57 23 8.0 17.0 0.00 0.09 0.06 59 1015.7